This demonstration page uses our WeatherBlox Daily Observations layout. Learn more.

39.01783, -85.05884

Hourly Observations for June 16, 2019

Temp ( °F °C ) Dew Point ( °F °C ) Humidity (%) Winds ( mph kmh ) Pressure ( in mb ) Visibility ( mi km ) Precip ( " mm )
12:11 am 00:11 Cloudy with Thunderstorms 69 20.6 66 18.9 90 90 W 10 17 29.83 1010 3 4.828032 0.23 5.842
12:23 am 00:23 Cloudy with Light Rain 69 20.6 66 18.9 90 90 SW 7 11 29.85 1011 7 11.265408 0.28 7.112
12:52 am 00:52 Cloudy with Rain 70 21.1 66 18.9 87 87 N 3 6 29.83 1010 4 6.437376 0.37 9.398
1:04 am 01:04 Cloudy with Heavy Thunderstorms 69 20.6 67 19.4 93 93 VRB 6 9 29.85 1011 2 3.218688 0.04 1.016
1:06 am 01:06 Cloudy with Heavy Thunderstorms 69 20.6 67 19.4 93 93 Calm 29.85 1011 2 3.218688 0.06 1.524
1:50 am 01:50 Cloudy with Rain 70 21 66 19 88 88 NE 6 9 29.8 1009 6 9.656064 0.75 19.05
1:52 am 01:52 Cloudy with Light Rain 69 20.6 67 19.4 93 93 ENE 7 11 29.8 1009 6 9.656064 0.75 19.05
2:17 am 02:17 Cloudy with Light Rain 70 21.1 67 19.4 90 90 ENE 7 11 29.8 1009 10 16.09344 0.01 0.254
2:21 am 02:21 Cloudy 70 21.1 67 19.4 90 90 NNW 14 22 29.83 1010 9 14.484096 0.01 0.254
2:52 am 02:52 Cloudy 71 21.7 66 18.9 84 84 SSW 13 20 29.8 1009 10 16.09344 0.03 0.762
3:52 am 03:52 Cloudy 69 20.6 66 18.9 90 90 S 5 7 29.8 1009 9 14.484096 0 0
4:52 am 04:52 Cloudy 69 20.6 66 18.9 90 90 S 6 9 29.77 1008 10 16.09344 0 0
5:52 am 05:52 Cloudy with Nearby Thunderstorms 70 21.1 66 18.9 87 87 SW 12 19 29.8 1009 10 16.09344 0.05 1.27
6:00 am 06:00 Cloudy with Thunderstorms 70 21.1 66 18.9 87 87 WSW 13 20 29.8 1009 1.75 2.816352 0.07 1.778
6:17 am 06:17 Cloudy with Heavy Thunderstorms 68 20 65 18.3 90 90 SW 13 20 29.83 1010 3 4.828032 0.4 10.16
6:35 am 06:35 Cloudy with Light Thunderstorms 67 19.4 64 17.8 91 91 W 15 24 29.85 1011 3 4.828032 0.48 12.192
6:45 am 06:45 Cloudy with Heavy Thunderstorms 67 19.4 64 17.8 91 91 WSW 13 20 29.85 1011 1.75 2.816352 0.62 15.748
6:52 am 06:52 Cloudy with Heavy Thunderstorms 67 19.4 63 17.2 87 87 SSW 13 20 29.83 1010 2.5 4.02336 0.67 17.018
7:20 am 07:20 Cloudy with Nearby Thunderstorms 67 19.4 63 17.2 87 87 SW 7 11 29.83 1010 7 11.265408 0.1 2.54
7:30 am 07:30 Cloudy with Light Rain 66 18.9 63 17.2 90 90 SW 6 9 29.83 1010 9 14.484096 0.12 3.048
7:52 am 07:52 Cloudy with Light Rain 66 18.9 63 17.2 90 90 SSW 9 15 29.83 1010 10 16.09344 0.12 3.048
8:52 am 08:52 Cloudy 68 20 64 17.8 87 87 SW 10 17 29.85 1011 10 16.09344 0.02 0.508
9:52 am 09:52 Mostly Cloudy 70 21.1 66 18.9 87 87 SW 14 22 29.85 1011 10 16.09344 0 0
10:52 am 10:52 Cloudy with Rain 70 21.1 65 18.3 84 84 SW 9 15 29.88 1012 6 9.656064 0.001 0.001
11:07 am 11:07 Cloudy with Nearby Thunderstorms 69 20.6 65 18.3 87 87 SSW 12 19 29.88 1012 6 9.656064 0.03 0.762
11:16 am 11:16 Cloudy with Light Thunderstorms 68 20 64 17.8 87 87 SW 9 15 29.88 1012 7 11.265408 0.03 0.762
11:36 am 11:36 Cloudy with Nearby Thunderstorms 68 20 65 18.3 90 90 SW 7 11 29.91 1013 5 8.04672 0.07 1.778
11:48 am 11:48 Cloudy with Light Thunderstorms 68 20 64 18 88 88 SSW 13 20 29.91 1013 9 14.484096 0.08 2.032
11:52 am 11:52 Cloudy with Light Thunderstorms 68 20 64 17.8 87 87 SSW 14 22 29.88 1012 7 11.265408 0.08 2.032
12:48 pm 12:48 Cloudy with Nearby Thunderstorms 66 19 64 18 94 94 SSW 10 17 29.88 1012 10 16.09344 0.04 1.016
1:33 pm 13:33 Mostly Cloudy 69 20.6 65 18.3 87 87 SW 6 9 29.88 1012 10 16.09344 0.01 0.254
1:40 pm 13:40 Mostly Cloudy with Heavy Thunderstorms 69 20.6 64 17.8 84 84 W 9 15 29.91 1013 2.5 4.02336 0.01 0.254
1:46 pm 13:46 Mostly Cloudy with Heavy Thunderstorms 68 20 64 18 88 88 W 7 11 29.88 1012 0.75 1.207008 0.11 2.794
1:49 pm 13:49 Mostly Cloudy with Nearby Thunderstorms 68 20 64 18 88 88 W 8 13 29.88 1012 1 1.609344 0.16 4.064
1:52 pm 13:52 Mostly Cloudy with Nearby Thunderstorms 68 20 65 18.3 90 90 W 8 13 29.88 1012 1.5 2.414016 0.16 4.064
2:00 pm 14:00 Mostly Cloudy with Nearby Thunderstorms 68 20 65 18.3 90 90 WSW 3 6 29.88 1012 8 12.874752 0.001 0.001
2:10 pm 14:10 Cloudy with Light Rain 70 21.1 66 18.9 87 87 SW 7 11 29.88 1012 8 12.874752 0.01 0.254
2:52 pm 14:52 Cloudy 75 23.9 70 21.1 84 84 SSW 8 13 29.85 1011 10 16.09344 0.01 0.254
3:52 pm 15:52 Cloudy 78 25.6 70 21.1 76 76 SW 9 15 29.85 1011 10 16.09344 0 0
4:52 pm 16:52 Mostly Cloudy 80 26.7 71 21.7 74 74 WSW 9 15 29.83 1010 10 16.09344 0 0
5:30 pm 17:30 Mostly Cloudy with Nearby Thunderstorms 78 25.6 71 21.7 79 79 SW 12 19 29.88 1012 10 16.09344 0 0
5:52 pm 17:52 Mostly Cloudy with Light Thunderstorms 76 24.4 71 21.7 85 85 SSW 10 17 29.85 1011 5 8.04672 0.01 0.254
6:52 pm 18:52 Partly Cloudy with Light Rain 72 22.2 67 19.4 84 84 NW 7 11 29.77 1008 10 16.09344 0.06 1.524
7:52 pm 19:52 Mostly Cloudy 73 22.8 68 20 84 84 WSW 5 7 29.8 1009 10 16.09344 0.001 0.001
8:52 pm 20:52 Mostly Cloudy with Light Rain 72 22.2 69 20.6 91 91 SSW 9 15 29.85 1011 5 8.04672 0.01 0.254
9:37 pm 21:37 Mostly Cloudy with Nearby Thunderstorms 70 21.1 66 18.9 87 87 SSW 13 20 29.85 1011 6 9.656064 0.1 2.54
9:52 pm 21:52 Mostly Cloudy with Rain 69 20.6 66 18.9 90 90 SSW 9 15 29.85 1011 5 8.04672 0.14 3.556
10:13 pm 22:13 Partly Cloudy with Nearby Thunderstorms 69 20.6 66 18.9 90 90 SSW 12 19 29.88 1012 8 12.874752 0.04 1.016
10:28 pm 22:28 Partly Cloudy with Light Rain 69 20.6 66 18.9 90 90 S 12 19 29.88 1012 9 14.484096 0.05 1.27
10:37 pm 22:37 Cloudy with Thunderstorms 69 20.6 66 18.9 90 90 S 15 24 29.88 1012 7 11.265408 0.06 1.524
10:52 pm 22:52 Cloudy with Thunderstorms 69 20.6 66 18.9 90 90 S 13 20 29.85 1011 8 12.874752 0.09 2.286
11:50 pm 23:50 Cloudy with Light Rain 68 20 64 18 88 88 SSW 10 17 29.91 1013 7 11.265408 0.07 1.778
11:52 pm 23:52 Cloudy with Rain 68 20 65 18.3 90 90 S 10 17 29.91 1013 6 9.656064 0.08 2.032

Powered by AerisWeather